Weather in Pan'shino

Russia / Volgograd Oblast     49˚02′40″N   44˚01′07″E
temp.,
°C
wind,
m/s
gust,
m/s
humid.,
%
clouds,
%
prec.,
mm/h
press.,
hPa
HPBL,
m
17 january, sun
sun1700:00−14˚sw511924 0.0 1016249
03:00−15˚wsw47923 0.0 1016123
06:00−16˚w339158 0.0 101527
09:00−15˚nw128859 0.0 101620
12:00−12˚nne2384100 0.0 1015220
15:00−12˚ne238897 0.0 1014208
18:00−13˚n4687100 0.0 1015200
21:00−13˚ne4691100 0.3 1014247
18 january, mon
mon1800:00−13˚ne5891100 0.0 1014247
03:00−14˚ne4893100 0.0 1013240
06:00−13˚ne5992100 0.1 1013274
09:00−13˚ne5894100 1.6 1013255
12:00−12˚ne4695100 1.5 1013278
15:00−11˚n4694100 2.3 1013323
18:00−12˚nnw2496100 0.3 1014189
21:00−14˚nnw2395100 0.4 101523
19 january, tue
tue1900:00−15˚nw2395100 0.0 101724
03:00−17˚wnw239791 0.0 101720
06:00−18˚wsw349531 0.0 101733
09:00−17˚wnw129365 0.0 101926
12:00−14˚w249098 0.0 1018281
15:00−13˚wsw239398 0.0 1017256
18:00−16˚w2294100 0.0 101820
21:00−17˚w2292100 0.0 101924
20 january, wed
wed2000:00−18˚w239588 0.0 101933
03:00−20˚w239573 0.0 102123
06:00−22˚w23950 0.0 102223
09:00−21˚wsw359421 0.0 1023112
12:00−16˚w579175 0.0 1023382
15:00−15˚w489086 0.0 1024407
18:00−19˚w349458 0.0 102651
21:00−21˚w339532 0.0 102731
21 january, thu
thu2100:00−21˚w23956 0.0 102824
03:00−22˚w23953 0.0 102924
06:00−22˚w22960 0.0 103022
09:00−20˚wsw23940 0.0 103137
12:00−15˚wsw35910 0.0 1031239
15:00−14˚wsw369210 0.0 1030249
18:00−16˚sw349372 0.0 103076
21:00−16˚sw489185 0.0 1030151